Location: Unspecified
(0.0000°N, 0.0000°E)
Time: 18:40:11
(UTC+00:00)

Vanguard 3 - Pass Details

Date: 02 October 2023
Orbit: 507 x 3241 km, 33.3° (Epoch: 29 November)

Event Time Altitude Azimuth Distance (km) Brightness Sun altitude
Rises 03:24:13 0° 266° (W) 2,678 - -36.3°
Reaches altitude 10° 03:26:57 10° 242° (WSW) 1,946 - -35.6°
Maximum altitude 03:29:39 16° 203° (SSW) 1,802 - -34.9°
Exits shadow 03:32:28 11° 170° (S) 2,352 9.6 -34.2°
Drops below altitude 10° 03:32:59 10° 166° (SSE) 2,496 9.8 -34.1°
Sets 03:37:19 0° 146° (SE) 3,943 11.1 -33.0°
